#timestamp,LO_Frequency,Hit,StdDev 
1569441615.4,286047000.7,N
1569441635.2,286046999.9,N
1569441655.1,286047000.0,N
1569441656.0,286047000.0,N
1569441675.8,286046998.1,N
1569441695.6,286046998.6,N
1569441715.5,286046998.4,N
1569441735.3,286046998.4,N
1569441755.2,286046998.4,N
1569441775.9,286046999.4,N
1569441795.7,286046998.7,N
1569441815.6,286047000.7,N
1569441835.4,286047000.0,N
1569441855.3,286047000.5,N
1569441875.1,286047001.1,N
1569441876.0,286047001.1,N
1569441895.8,286046998.7,N
1569441915.7,286046998.8,N
1569441935.5,286047000.6,N
1569441955.3,286047002.3,N
1569441975.2,286046999.7,N
1569441995.0,286047001.9,N
1569441995.9,286047001.9,N
1569442015.8,286047003.4,N
1569442035.6,286047005.4,Y
1569442055.4,286047005.8,P
1569442075.3,286047006.8,N
1569442095.1,286047006.5,N
1569442115.9,286047007.1,N
1569442135.7,286047006.8,N
1569442155.5,286047004.9,N
1569442175.4,286047009.1,Y
1569442195.2,286047001.5,P
1569442215.1,286047002.8,N
1569442216.0,286047002.8,N
1569442235.8,286046999.9,N
1569442255.6,286047000.6,N
1569442275.5,286046998.6,N
1569442295.3,286046998.8,N
1569442315.1,286047001.0,N
1569442335.9,286047001.1,N
1569442355.7,286046998.6,N
1569442375.6,286047000.1,N
1569442395.4,286047000.4,N
1569442415.2,286046998.6,N
1569442435.1,286046999.1,N
1569442436.0,286046999.1,N
1569442455.8,286046996.8,N
1569442475.7,286046997.7,N
1569442495.5,286046997.0,N
1569442515.3,286046997.2,N
1569442535.2,286046997.0,N
1569442555.0,286046997.2,N
1569442555.9,286046997.2,N
1569442575.7,286046997.4,N
1569442595.6,286046995.8,N
1569442615.4,286046993.3,N
1569442635.3,286046995.9,N
1569442655.1,286046996.2,N
1569442675.8,286046997.5,N
1569442695.7,286046996.8,N
1569442715.5,286046997.3,N
1569442735.4,286046996.8,N
1569442755.2,286046999.6,N
1569442775.0,286046996.8,N
1569442775.9,286046996.8,N
1569442795.8,286046996.6,N
1569442815.6,286046997.2,N
1569442835.4,286046996.7,N
1569442855.3,286046997.3,N
1569442875.1,286046994.9,Y
1569442895.9,286046996.8,P
1569442915.7,286046996.6,P
1569442935.5,286046995.1,P
1569442955.4,286046995.2,Y
1569442975.2,286047001.2,P
1569442995.1,286047000.6,N
1569442996.0,286047000.6,N
1569443015.8,286047000.9,N
1569443035.7,286047001.0,N
1569443055.5,286047000.8,N
1569443075.3,286046998.4,N
1569443095.2,286046999.3,N
1569443115.0,286046998.9,N
1569443115.9,286046998.9,N
1569443135.7,286046999.6,N
1569443155.6,286046996.7,N
1569443175.4,286046998.1,N
1569443195.3,286047000.9,N
1569443215.1,286047001.1,N
1569443216.0,286047001.1,N
1569443235.8,286047000.3,N
1569443255.7,286047000.8,N
1569443275.5,286046999.6,N
1569443295.3,286046999.4,N
1569443315.2,286046996.8,N
1569443335.0,286046999.6,N
1569443335.9,286046999.6,N
1569443355.8,286046999.5,N
1569443375.6,286046997.2,N
1569443395.4,286046997.0,N
1569443415.3,286046997.3,N
1569443435.1,286046997.5,N
1569443455.9,286046997.6,N
1569443475.7,286046997.3,N
1569443495.5,286046996.5,N
1569443515.4,286046996.8,N
1569443535.2,286046996.7,N
1569443555.1,286046997.5,N
1569443556.0,286046997.5,N
1569443575.8,286046997.0,N
1569443595.6,286046998.6,N
1569443615.5,286046996.5,N
1569443635.3,286046998.1,N
1569443655.1,286046998.7,N
1569443675.9,286046997.2,N
1569443695.7,286046995.1,Y
1569443715.6,286046997.4,P
1569443735.4,286046996.7,P
1569443755.2,286046998.7,N
1569443775.1,286047000.9,N
1569443776.0,286047000.9,N
1569443795.8,286047001.2,N
1569443815.7,286047000.1,N
1569443835.5,286047002.5,N
1569443855.3,286047001.1,N
1569443875.2,286046998.4,N
1569443895.0,286046999.0,N
1569443895.9,286046999.0,N
1569443915.7,286046998.1,N
1569443935.6,286046998.2,N
1569443955.4,286046998.4,N
1569443975.3,286046998.3,N
1569443995.1,286046999.2,N
1569443996.0,286046999.2,N
1569444015.8,286047000.6,N
1569444035.7,286047002.8,N
1569444055.5,286047000.4,N
1569444075.4,286046999.9,N
1569444095.2,286047000.7,N
1569444115.0,286047000.7,N
1569444115.9,286047000.7,N
1569444135.8,286046999.4,N
1569444155.6,286046998.9,N
1569444175.4,286047000.3,N
1569444195.3,286047004.2,N
1569444215.1,286047003.1,N
1569444235.9,286047004.0,N
1569444255.7,286047003.7,N
1569444275.5,286047003.8,N
1569444295.4,286047004.3,N
1569444315.2,286047001.5,N
1569444335.0,286047002.6,N
1569444336.0,286047002.6,N
1569444355.8,286046999.7,N
1569444375.6,286046999.8,N
1569444395.5,286047000.4,N
1569444415.3,286047000.3,N
1569444435.1,286047000.8,N
1569444455.9,286047000.9,N
1569444475.7,286046998.3,N
1569444495.6,286047000.4,N
1569444515.4,286047000.5,N
1569444535.2,286047000.7,N
1569444555.1,286047002.5,N
1569444556.0,286047002.5,N
1569444575.8,286046999.8,N
1569444595.7,286047001.2,N
1569444615.5,286046999.2,N
1569444635.3,286046999.0,N
1569444655.2,286047000.6,N
1569444675.9,286047000.0,N
1569444695.7,286047003.9,N
1569444715.6,286047002.0,N
1569444735.4,286047001.6,N
1569444755.3,286047004.0,N
1569444775.1,286047003.5,N
1569444776.0,286047003.5,N
1569444795.8,286047004.4,N
1569444815.7,286047001.8,N
1569444835.5,286047003.9,N
1569444855.4,286047001.4,N
1569444875.2,286047002.2,N
1569444895.0,286047004.4,N
1569444895.9,286047004.4,N
1569444915.8,286047004.1,N
1569444935.6,286047003.9,N
1569444955.4,286047003.6,N
1569444975.3,286047002.2,N
1569444995.1,286047000.2,N
1569445015.9,286047000.1,N
1569445035.7,286047001.9,N
1569445055.5,286046998.1,N
1569445075.4,286047001.2,N
1569445095.2,286047000.5,N
1569445115.1,286047000.1,N
1569445116.0,286047000.1,N
1569445135.8,286047001.9,N
1569445155.6,286047002.4,N
1569445175.5,286046999.7,N
1569445195.3,286047002.3,N
